[[{"header":{"parameterUnit":"m.s-1","parameterCategory":1,"la1":30.2992,"la2":30.254,"lo1":-89.0895,"lo2":-89.0443,"dy":0.0025,"dx":0.0025,"nx":19,"ny":19,"refTime":"2026-04-16T21:00:00:Z","depth":0,"parameterNumber":2,"parameterNumberName":"U-component_of_WINDS"},"data":[0,0,0,-1.1262,-1.1261,-1.1205,-1.1205,-1.1145,-1.1145,0,0,0,0,0,0,0,0,0,0,0,-1.1286,-1.1286,-1.1262,-1.1261,-1.1205,-1.1204,-1.1145,-1.1145,0,0,0,0,0,0,0,0,0,0,0,-1.1286,-1.1286,-1.1285,-1.1261,-1.1205,-1.1204,-1.1145,-1.1183,0,0,0,0,0,0,0,0,0,0,-1.1236,-1.1264,-1.1286,-1.1285,-1.126,-1.1205,-1.1204,-1.1185,-1.1181,-1.1176,0,-1.1173,0,-1.1158,-1.1141,-1.1141,0,0,0,-1.1256,-1.1268,-1.1246,-1.1285,-1.126,-1.1205,-1.1229,-1.1182,-1.1178,-1.117,-1.1172,-1.1169,-1.1157,-1.1141,-1.1141,-1.1129,-1.1129,0,0,-1.1259,-1.1279,-1.1249,-1.1244,-1.1253,-1.123,-1.1227,-1.1179,-1.1182,-1.1171,-1.1167,-1.1156,-1.1141,-1.114,-1.1129,-1.1129,0,0,0,-1.1271,-1.1282,-1.1261,-1.1246,-1.1235,-1.1229,-1.1225,-1.1184,-1.1176,-1.1167,-1.1155,-1.114,-1.114,-1.1128,-1.1129,-1.1158,0,0,0,-1.1273,-1.1289,-1.1263,-1.1275,-1.1237,-1.1209,-1.1231,-1.1179,-1.1173,-1.1155,-1.114,-1.1139,-1.1128,-1.1128,-1.1156,-1.1168,0,0,0,-1.1287,-1.129,-1.1285,-1.1276,-1.1253,-1.1209,-1.1198,-1.1177,-1.1166,-1.1141,-1.1139,-1.1128,-1.1128,-1.1155,-1.1166,-1.117,0,0,0,-1.1308,-1.1311,-1.1286,-1.1285,-1.1253,-1.1228,-1.1198,-1.1178,-1.116,-1.114,-1.1128,-1.1129,-1.1155,-1.1164,-1.1169,-1.1177,-1.1183,0,0,-1.1323,-1.1314,-1.1312,-1.1287,-1.1272,-1.1235,-1.1224,-1.1188,-1.1167,-1.1143,-1.1142,-1.1157,-1.1166,-1.117,-1.1209,-1.1213,0,0,0,-1.1324,-1.1323,-1.1314,-1.1298,-1.1271,-1.1249,-1.1213,-1.12,-1.1178,-1.1159,-1.116,-1.1164,-1.1166,-1.1169,-1.1173,-1.1173,-1.1131,-1.1131,-1.1131,-1.1374,-1.1348,-1.1343,-1.131,-1.1295,-1.1259,-1.1244,-1.122,-1.1197,-1.1199,-1.119,-1.1217,-1.1221,-1.1224,-1.1225,-1.1194,-1.1194,-1.1194,-1.1194,-1.1394,-1.1388,-1.1359,-1.1344,-1.1316,-1.1303,-1.1269,-1.1254,-1.1238,-1.122,-1.1221,-1.1203,-1.123,-1.1229,-1.1196,-1.1195,-1.1195,-1.1195,-1.1195,-1.1423,-1.1416,-1.14,-1.1375,-1.136,-1.1327,-1.1313,-1.1289,-1.1266,-1.1266,-1.1255,-1.1255,-1.125,-1.1263,-1.1263,-1.1263,-1.1263,-1.1263,-1.1264,-1.1459,-1.1441,-1.1432,-1.1405,-1.1392,-1.1373,-1.1338,-1.1324,-1.1304,-1.1287,-1.1287,-1.1264,-1.1238,-1.1231,-1.1265,-1.1265,-1.1264,-1.1264,-1.1264,-1.1486,-1.1477,-1.1463,-1.1451,-1.1418,-1.1404,-1.1374,-1.135,-1.1336,-1.133,-1.1308,-1.1293,-1.1281,-1.1278,-1.1272,-1.1314,-1.1314,-1.1314,-1.1314,-1.151,-1.1503,-1.1484,-1.1465,-1.1445,-1.1417,-1.1404,-1.1377,-1.1348,-1.1338,-1.1329,-1.132,-1.1318,-1.1307,-1.1303,-1.1297,-1.1345,-1.1345,-1.1345,-1.1526,-1.1515,-1.1508,-1.148,-1.1453,-1.143,-1.1417,-1.1398,-1.1363,-1.1346,-1.133,-1.1328,-1.1313,-1.131,-1.129,-1.1284,-1.1273,0,0]},{"header":{"parameterUnit":"m.s-1","parameterCategory":1,"la1":30.2992,"la2":30.254,"lo1":-89.0895,"lo2":-89.0443,"dy":0.0025,"dx":0.0025,"nx":19,"ny":19,"refTime":"2026-04-16T21:00:00:Z","depth":0,"parameterNumber":3,"parameterNumberName":"V-component_of_WINDS"},"data":[0,0,0,3.6971,3.6969,3.6882,3.6881,3.6759,3.6758,0,0,0,0,0,0,0,0,0,0,0,3.6995,3.6994,3.6971,3.6969,3.6882,3.6881,3.6759,3.6758,0,0,0,0,0,0,0,0,0,0,0,3.6995,3.6994,3.6993,3.6969,3.6882,3.6881,3.6759,3.6828,0,0,0,0,0,0,0,0,0,0,3.6915,3.6935,3.6994,3.6993,3.6968,3.6882,3.6881,3.6832,3.6824,3.6795,0,3.6773,0,3.6764,3.6749,3.6749,0,0,0,3.697,3.6941,3.6921,3.6993,3.6968,3.6882,3.6921,3.6827,3.6819,3.6785,3.6771,3.6767,3.6762,3.6749,3.6748,3.6591,3.6591,0,0,3.6975,3.6976,3.6927,3.6915,3.6932,3.6924,3.6919,3.6822,3.6805,3.6771,3.6764,3.676,3.6748,3.6747,3.6592,3.6591,0,0,0,3.6988,3.698,3.6962,3.692,3.6905,3.6922,3.6915,3.681,3.6804,3.6763,3.6758,3.6747,3.6745,3.6593,3.6592,3.6558,0,0,0,3.6991,3.6988,3.6964,3.6963,3.6907,3.6857,3.6905,3.6811,3.68,3.6759,3.6747,3.6744,3.6594,3.6592,3.656,3.654,0,0,0,3.7001,3.6989,3.6976,3.6964,3.6927,3.6859,3.6847,3.6808,3.6797,3.6749,3.6744,3.6594,3.6593,3.6563,3.6544,3.65,0,0,0,3.7011,3.6944,3.6975,3.6898,3.6928,3.684,3.6848,3.6781,3.6736,3.6746,3.6594,3.6592,3.6564,3.6547,3.6503,3.6464,3.6448,0,0,3.6926,3.6933,3.6888,3.6914,3.6821,3.6853,3.6753,3.6708,3.6699,3.6627,3.6623,3.6559,3.6544,3.6501,3.6359,3.6346,0,0,0,3.6862,3.6829,3.6804,3.6764,3.6731,3.67,3.6671,3.6654,3.6593,3.6664,3.6532,3.6523,3.6497,3.6478,3.6467,3.6445,3.6583,3.6584,3.6584,3.6742,3.674,3.6664,3.6652,3.6612,3.6584,3.6551,3.6523,3.6528,3.6497,3.6475,3.639,3.6368,3.636,3.6336,3.6454,3.6454,3.6454,3.6454,3.6618,3.6572,3.6585,3.6517,3.6513,3.6454,3.6424,3.643,3.6373,3.6405,3.6382,3.6417,3.6346,3.6325,3.6451,3.6452,3.6452,3.6452,3.6452,3.6539,3.6517,3.6501,3.6444,3.6399,3.6387,3.6333,3.6331,3.6327,3.6305,3.6281,3.6282,3.6282,3.6294,3.6294,3.6294,3.6293,3.6293,3.6293,3.6464,3.6447,3.6404,3.6366,3.6341,3.6307,3.628,3.6253,3.6223,3.6225,3.6225,3.6233,3.6341,3.6368,3.6288,3.6289,3.629,3.629,3.629,3.6338,3.6367,3.63,3.6276,3.6231,3.6187,3.6186,3.6133,3.611,3.6084,3.6097,3.6178,3.6183,3.6192,3.6214,3.6099,3.6099,3.6099,3.6099,3.6271,3.6275,3.6208,3.6169,3.6129,3.6123,3.6045,3.6023,3.6004,3.599,3.6006,3.6036,3.6044,3.6044,3.6056,3.6076,3.5929,3.5929,3.5929,3.6193,3.6194,3.613,3.6117,3.6082,3.6052,3.5979,3.593,3.5914,3.5922,3.5978,3.5985,3.6033,3.6049,3.6057,3.6075,3.6113,0,0]}]]